[[{"header":{"parameterUnit":"m.s-1","parameterCategory":1,"la1":30.2991,"la2":30.254,"lo1":-89.0895,"lo2":-89.0444,"dy":0.0017,"dx":0.0017,"nx":28,"ny":28,"refTime":"2025-03-22T09:00:00:Z","depth":0,"parameterNumber":2,"parameterNumberName":"U-component_of_WINDS"},"data":[0,0,0,0,0,0,0,0,0,0,0,0,0,0,0,0,0,0,0,0,0,0,0,0,0,0,0,0,0,0,0,0,0,0,0,0,0,0,0,0,0,0,0,0,0,0,0,0,0,0,0,0,0,0,0,0,0,0,0.0291,0.0293,0,0.0481,0.0483,0.0485,0.056,0.0559,0.0559,0.0558,0.0758,0.0764,0.077,0,0,0,0,0,0,0,0,0,0,0,0,0,-0.0005,-0.0,0.029,0.0293,0.0295,0.0481,0.0483,0.0486,0.056,0.0559,0.0558,0.0558,0.0756,0.0763,0.077,0,0,0,0,0,0,0,0,0,0,0,0,0,0.0148,0.0001,0.029,0.0354,0.0362,0.048,0.0483,0.0487,0.056,0.0559,0.0558,0.0557,0.0754,0.0763,0.0771,0.0841,0,0,0.0798,0.0802,0,0,0,0,0,0,0,0,0.0139,0.0159,0.0342,0.035,0.0359,0.0496,0.0453,0.0606,0.056,0.0485,0.0558,0.0557,0.0672,0.0687,0.0725,0.0851,0.0859,0.0799,0.0804,0.0808,0.081,0,0,0,0,0,0,0,0.0128,0.0151,0.0366,0.0345,0.0355,0.0375,0.0396,0.0482,0.0581,0.0491,0.0497,0.0518,0.0676,0.0716,0.073,0.0862,0.0798,0.0806,0.0812,0.0815,0.1055,0.1056,0,0,0,0,0,0,0.0107,0.0142,0.036,0.0372,0.0245,0.0381,0.0404,0.0453,0.058,0.0598,0.0519,0.0521,0.0702,0.072,0.0738,0.0828,0.0808,0.0816,0.0821,0.1054,0.1055,0.1056,0,0,0,0,0,0,0.01,0.0125,0.0352,0.0258,0.0289,0.0387,0.0441,0.0457,0.0497,0.0601,0.0619,0.0541,0.0702,0.0725,0.0815,0.0836,0.082,0.0828,0.1052,0.1054,0.1056,0.1009,0,0,0,0,0,0,0.0091,0.0122,0.0149,0.0258,0.0293,0.0425,0.0442,0.0461,0.0511,0.0516,0.0627,0.0644,0.0703,0.0801,0.0823,0.0848,0.0835,0.1051,0.1053,0.1055,0.1009,0.1009,0.1009,0,0,0,0,0,0.008,0.013,0.015,0.0176,0.0329,0.0426,0.0446,0.0511,0.0513,0.0541,0.0607,0.0641,0.083,0.0809,0.0835,0.0863,0.105,0.1053,0.1055,0.1009,0.1009,0.1009,0,0,0,0,0,0,0.0022,0.0145,0.0169,0.0255,0.0329,0.0438,0.0476,0.0509,0.0585,0.0587,0.0666,0.069,0.0773,0.0827,0.0802,0.0937,0.0942,0.095,0.0899,0.0899,0.0899,0.0885,0.0842,0,0,0,0,0,0.0019,0.0086,0.0191,0.0256,0.0292,0.0377,0.0422,0.0465,0.0546,0.0578,0.0651,0.073,0.0807,0.0856,0.0933,0.1017,0.1043,0.1048,0.1048,0.1047,0.1054,0.1102,0.1106,0.1065,0.1065,0.1065,0,0,0.0014,0.0089,0.0127,0.0247,0.0309,0.0378,0.0403,0.0475,0.0528,0.059,0.0678,0.0734,0.0827,0.0914,0.0956,0.0961,0.107,0.1051,0.1049,0.1056,0.1105,0.1109,0.1112,0.1066,0.1066,0.1066,0,0,0.004,0.0103,0.0165,0.0227,0.032,0.0376,0.0391,0.0495,0.0534,0.0623,0.0671,0.0735,0.0866,0.093,0.098,0.1028,0.1062,0.1051,0.1051,0.1097,0.11,0.1103,0.1121,0.1126,0.1057,0.1057,0.1057,0,0.0022,0.0127,0.0193,0.0262,0.0313,0.0371,0.0434,0.0491,0.0606,0.064,0.0644,0.0809,0.0876,0.0978,0.099,0.1028,0.1048,0.1039,0.1094,0.1098,0.1102,0.112,0.1126,0.1055,0.1055,0.1055,0.1055,0,0.01,0.0172,0.0211,0.0318,0.0373,0.0439,0.0516,0.0565,0.0603,0.0659,0.075,0.0831,0.0925,0.0952,0.0991,0.106,0.1061,0.1078,0.1086,0.1103,0.1121,0.1128,0.1052,0.1053,0.1053,0.1054,0,0,0.0096,0.0238,0.0251,0.03,0.0407,0.0464,0.0533,0.0623,0.0663,0.074,0.08,0.0909,0.0925,0.0982,0.1028,0.1069,0.1102,0.1082,0.1085,0.1083,0.1184,0.117,0.1177,0.1125,0.1126,0.1128,0.1176,0,0.0136,0.026,0.0321,0.0419,0.0487,0.0542,0.0602,0.0674,0.0728,0.0794,0.0855,0.093,0.0946,0.098,0.1023,0.1089,0.1124,0.1086,0.1183,0.1185,0.1158,0.1186,0.1172,0.1214,0.1183,0.1185,0.1185,0,0.02,0.0275,0.0378,0.0477,0.0508,0.056,0.0647,0.0709,0.0793,0.083,0.0891,0.0936,0.1012,0.1012,0.1118,0.1091,0.1134,0.1173,0.1176,0.1188,0.1187,0.1199,0.1229,0.1235,0.1197,0.1196,0.1195,0,0.0187,0.0313,0.0391,0.0432,0.0549,0.0584,0.0635,0.0718,0.0768,0.0844,0.0878,0.0963,0.1009,0.1074,0.1142,0.1136,0.1241,0.1247,0.1274,0.1272,0.1295,0.1292,0.1332,0.1321,0.1321,0.1321,0.1321,0,0.0226,0.0287,0.0387,0.0435,0.0506,0.0576,0.0644,0.0699,0.0772,0.0833,0.0886,0.0943,0.1027,0.1095,0.1148,0.1227,0.1248,0.128,0.1294,0.1276,0.1272,0.1306,0.1305,0.1323,0.1322,0.1322,0.1321,0,0.0223,0.0292,0.0381,0.0484,0.0511,0.0558,0.0647,0.0697,0.0752,0.0829,0.0851,0.0939,0.1021,0.1094,0.1203,0.1238,0.132,0.1336,0.1291,0.1298,0.1321,0.1318,0.1384,0.1396,0.1376,0.1376,0.1376,0,0.0243,0.0291,0.0399,0.0442,0.0492,0.0562,0.0612,0.0683,0.0734,0.0832,0.087,0.0955,0.1027,0.1155,0.123,0.1313,0.1333,0.135,0.1346,0.1326,0.1334,0.133,0.1335,0.135,0.135,0.135,0.135,0,0.0272,0.0304,0.0374,0.0456,0.0515,0.0583,0.0654,0.0687,0.0771,0.0826,0.0909,0.0964,0.1074,0.1158,0.125,0.1304,0.1341,0.135,0.1361,0.1343,0.1315,0.1331,0.129,0.1349,0.1349,0.1349,0.1349,0.1349,0.0282,0.0327,0.041,0.0486,0.0546,0.061,0.0662,0.0723,0.0793,0.0887,0.0925,0.101,0.1092,0.1219,0.1272,0.134,0.1347,0.1363,0.1367,0.137,0.1366,0.1303,0.1357,0.1357,0.1357,0.1358,0.1358,0,0.0314,0.0369,0.0439,0.0535,0.0595,0.0623,0.0702,0.0751,0.0824,0.0897,0.0966,0.1062,0.1143,0.1224,0.131,0.1349,0.1368,0.1369,0.1367,0.1379,0.1355,0.1337,0.1352,0.1352,0.1352,0.1352,0.1352,0.1352,0.0337,0.0416,0.0457,0.0565,0.0621,0.0703,0.0746,0.0805,0.0864,0.0968,0.1035,0.1086,0.1163,0.1254,0.1331,0.1353,0.1382,0.1378,0.1405,0.1381,0.1381,0.138,0.1364,0.1384,0.1384,0.1423,0.1423,0.1424]},{"header":{"parameterUnit":"m.s-1","parameterCategory":1,"la1":30.2991,"la2":30.254,"lo1":-89.0895,"lo2":-89.0444,"dy":0.0017,"dx":0.0017,"nx":28,"ny":28,"refTime":"2025-03-22T09:00:00:Z","depth":0,"parameterNumber":3,"parameterNumberName":"V-component_of_WINDS"},"data":[0,0,0,0,0,0,0,0,0,0,0,0,0,0,0,0,0,0,0,0,0,0,0,0,0,0,0,0,0,0,0,0,0,0,0,0,0,0,0,0,0,0,0,0,0,0,0,0,0,0,0,0,0,0,0,0,0,0,3.4846,3.4845,0,3.4759,3.4758,3.4757,3.4729,3.4729,3.4729,3.473,3.4634,3.4631,3.4628,0,0,0,0,0,0,0,0,0,0,0,0,0,3.4978,3.4976,3.4846,3.4845,3.4844,3.4759,3.4758,3.4757,3.4729,3.4729,3.473,3.473,3.4635,3.4631,3.4628,0,0,0,0,0,0,0,0,0,0,0,0,0,3.4909,3.4975,3.4846,3.4819,3.4816,3.476,3.4758,3.4757,3.4729,3.4729,3.473,3.473,3.4636,3.4632,3.4627,3.4588,0,0,3.4614,3.4612,0,0,0,0,0,0,0,0,3.4913,3.4904,3.4824,3.4821,3.4817,3.4756,3.477,3.47,3.4728,3.4762,3.473,3.4731,3.4673,3.4666,3.4648,3.4584,3.458,3.4613,3.4611,3.4609,3.4608,0,0,0,0,0,0,0,3.4918,3.4908,3.4811,3.4823,3.4819,3.4809,3.48,3.4756,3.4715,3.4759,3.4756,3.4747,3.4671,3.4652,3.4646,3.4578,3.4614,3.461,3.4607,3.4605,3.4478,3.4477,0,0,0,0,0,0,3.4928,3.4912,3.4814,3.4809,3.4868,3.4807,3.4796,3.4775,3.4715,3.4707,3.4747,3.4746,3.466,3.4651,3.4642,3.4593,3.4609,3.4605,3.4602,3.4478,3.4477,3.4477,0,0,0,0,0,0,3.4931,3.492,3.4817,3.486,3.4846,3.4804,3.478,3.4773,3.4754,3.4706,3.4698,3.4735,3.466,3.4648,3.4602,3.4589,3.4603,3.4599,3.4479,3.4478,3.4477,3.4494,0,0,0,0,0,0,3.4935,3.4921,3.4908,3.486,3.4844,3.4782,3.4779,3.4771,3.4747,3.4746,3.4694,3.4685,3.4659,3.4609,3.4598,3.4583,3.4595,3.448,3.4479,3.4477,3.4494,3.4494,3.4493,0,0,0,0,0,3.494,3.4914,3.4907,3.4895,3.4827,3.4781,3.4771,3.4744,3.4746,3.4731,3.4701,3.4687,3.4593,3.4605,3.4592,3.4576,3.4481,3.4479,3.4477,3.4495,3.4494,3.4493,0,0,0,0,0,0,3.4958,3.4907,3.4899,3.4857,3.4824,3.4776,3.4756,3.4744,3.4707,3.4707,3.4672,3.4661,3.4617,3.4592,3.4606,3.4535,3.4536,3.4531,3.4553,3.4552,3.4551,3.4558,3.4592,0,0,0,0,0,3.4958,3.4928,3.4884,3.4851,3.4835,3.4799,3.4778,3.476,3.4723,3.4708,3.4674,3.4636,3.4598,3.4574,3.4536,3.4491,3.4478,3.4473,3.4472,3.4472,3.4468,3.4442,3.4439,3.4471,3.4471,3.4471,0,0,3.4956,3.4925,3.4907,3.4854,3.4826,3.4793,3.4787,3.4752,3.4727,3.4702,3.4657,3.4631,3.4587,3.4541,3.4519,3.4518,3.4457,3.447,3.447,3.4466,3.444,3.4437,3.4434,3.447,3.447,3.447,0,0,3.4936,3.491,3.488,3.4853,3.4812,3.4788,3.4781,3.4735,3.4718,3.4673,3.4653,3.4621,3.4556,3.4526,3.4502,3.4471,3.4456,3.4459,3.4455,3.443,3.4427,3.4425,3.4413,3.4409,3.4456,3.4456,3.4456,0,3.4938,3.4891,3.4865,3.4833,3.4809,3.4788,3.4756,3.473,3.4677,3.4661,3.4661,3.458,3.4548,3.4495,3.4488,3.4469,3.4458,3.4465,3.443,3.4427,3.4424,3.4413,3.4409,3.4457,3.4456,3.4456,3.4456,0,3.4895,3.4862,3.4843,3.4796,3.477,3.4738,3.4705,3.4682,3.4666,3.4642,3.4596,3.4558,3.4512,3.4498,3.4481,3.4442,3.4443,3.4437,3.4437,3.4423,3.4411,3.4407,3.4457,3.4457,3.4457,3.4457,0,0,3.4883,3.4825,3.4818,3.4796,3.475,3.4722,3.4688,3.4646,3.4627,3.4591,3.456,3.4506,3.4501,3.4474,3.4453,3.4431,3.4409,3.4428,3.4426,3.4425,3.4363,3.4367,3.4363,3.4399,3.4398,3.4398,3.4366,0,3.4857,3.4799,3.4775,3.4727,3.4695,3.4675,3.4645,3.4612,3.4588,3.4556,3.4528,3.4491,3.4487,3.447,3.4447,3.4417,3.4396,3.4418,3.4369,3.4367,3.438,3.4357,3.4362,3.4334,3.4362,3.4361,3.436,0,3.4819,3.4786,3.4736,3.4693,3.4679,3.4653,3.4613,3.4583,3.4544,3.4528,3.4499,3.448,3.4441,3.4445,3.439,3.4406,3.4384,3.4366,3.4364,3.4358,3.4363,3.4349,3.4324,3.432,3.4353,3.4354,3.4354,0,3.4815,3.4758,3.4721,3.4703,3.4653,3.4635,3.4612,3.4575,3.4551,3.4515,3.4499,3.4457,3.4435,3.4402,3.4372,3.4377,3.4319,3.432,3.4303,3.4304,3.4292,3.4293,3.4262,3.4279,3.4279,3.4279,3.4279,0,3.4788,3.4758,3.4719,3.4695,3.466,3.4632,3.4598,3.4573,3.454,3.451,3.4489,3.446,3.4423,3.4389,3.4364,3.4322,3.4312,3.4297,3.429,3.4298,3.43,3.4283,3.4284,3.4278,3.4278,3.4278,3.4278,0,3.4778,3.4751,3.4709,3.4665,3.4654,3.463,3.4591,3.4567,3.4543,3.4505,3.4494,3.4455,3.4414,3.4381,3.4327,3.431,3.4266,3.4259,3.4281,3.4277,3.4262,3.4264,3.4219,3.4211,3.4233,3.4233,3.4233,0,3.4762,3.4739,3.4694,3.4674,3.4653,3.462,3.4597,3.4568,3.4544,3.4499,3.4479,3.4438,3.4403,3.4338,3.4303,3.4262,3.4253,3.424,3.4246,3.4255,3.4252,3.4254,3.4251,3.4239,3.4239,3.4239,3.4239,0,3.4738,3.4726,3.4694,3.4658,3.4631,3.4601,3.4569,3.4553,3.4518,3.4491,3.4451,3.4424,3.4371,3.4329,3.4284,3.4258,3.4242,3.4238,3.4232,3.4239,3.4252,3.4245,3.4278,3.4239,3.4239,3.4239,3.4239,3.4239,3.4724,3.4702,3.4668,3.4633,3.4607,3.4579,3.4554,3.4527,3.4494,3.445,3.4434,3.4393,3.4353,3.4292,3.4266,3.4231,3.4229,3.4221,3.4218,3.4216,3.4217,3.4259,3.4223,3.4223,3.4223,3.4223,3.4223,0,3.4698,3.4675,3.4644,3.4602,3.4574,3.4565,3.453,3.4506,3.4471,3.4437,3.4405,3.4358,3.4317,3.428,3.4237,3.4217,3.4208,3.4206,3.4207,3.4201,3.4221,3.4231,3.4214,3.4214,3.4214,3.4214,3.4214,3.4214,3.4681,3.4644,3.4628,3.4578,3.4554,3.4516,3.4496,3.4469,3.4442,3.4392,3.4359,3.4336,3.43,3.4255,3.4217,3.4207,3.4191,3.4191,3.4179,3.4199,3.42,3.4201,3.421,3.4189,3.4189,3.4162,3.4162,3.4161]}]]